Regional Weather Roundup
Issued by NWS

Home | Current Version | Previous Version | Text Only | Print | Product List | Glossary Off
Versions: 1 2 3 4 5 6 7 8 9 10 11 12 13 14 15 16 17 18 19 20 21 22 23 24 25 26 27 28 29 30 31 32 33 34 35 36 37 38 39 40 41 42 43 44 45 46 47 48 49 50

000
ASUS43 KLSX 250357
RWRMO

WEATHER SUMMARY FOR MISSOURI
NATIONAL WEATHER SERVICE SPRINGFIELD MO
1100 PM CDT WED AUG 24 2016

NOTE: "FAIR" INDICATES FEW OR NO CLOUDS BELOW 12,000 FEET WITH NO
       SIGNIFICANT WEATHER AND/OR OBSTRUCTIONS TO VISIBILITY.
       CURRENT SKY AND/OR WEATHER CONDITIONS ARE NOT AVAILABLE FOR
       CHILLICOTHE AND FARMINGTON.

MOZ001>031-035>038-043-044-053-054-250500-
...NORTHERN AND WESTERN MISSOURI...

CITY           SKY/WX    TMP DP  RH WIND       PRES   REMARKS
KANSAS CTY INT LGT RAIN  72  68  87 NE3       30.04R
KANSAS C DTWN  LGT RAIN  73  70  88 E6        30.01F
LEE`S SUMMIT   LGT RAIN  70  69  97 N7        30.04F
ST JOSEPH      CLOUDY    70  68  93 CALM      30.02S
KIRKSVILLE     LGT RAIN  73  73 100 SW6       30.06R FOG

$$
MOZ066>068-077>081-088>096-101>105-250500-
...SOUTHWEST MISSOURI...

CITY           SKY/WX    TMP DP  RH WIND       PRES   REMARKS
SPRINGFIELD    CLEAR     79  68  69 S13       30.07R
JOPLIN         CLEAR     81  68  64 S14       30.04R

$$
MOZ032>034-039>042-045>050-055>058-069>072-250500-
...CENTRAL MISSOURI...

CITY           SKY/WX    TMP DP  RH WIND       PRES   REMARKS
COLUMBIA       NOT AVBL
JEFFERSON CITY CLEAR     82  75  79 S7        30.00R
SEDALIA        CLOUDY    78  72  81 NW7       30.05R
WHITEMAN AFB   TSTM      70  70 100 NW16G22   30.05R FOG

$$
MOZ051-052-059>065-250500-
...EAST CENTRAL MISSOURI...

CITY           SKY/WX    TMP DP  RH WIND       PRES   REMARKS
ST LOUIS INTL  PTCLDY    85  74  69 SW9       30.01F HX  92

$$
MOZ072>076-082>087-097>100-106>115-250500-
...SOUTH CENTRAL AND SOUTHEAST MISSOURI...

CITY           SKY/WX    TMP DP  RH WIND       PRES   REMARKS
CAPE GIRARDEAU CLEAR     80  75  84 S8        30.05F
POPLAR BLUFF   CLEAR     78  75  90 S6        30.06S
WEST PLAINS    CLEAR     78  70  76 S7        30.12S

$$



USA.gov is the U.S. government's official web portal to all federal, state and local government web resources and services.